Regional Weather Roundup
Issued by NWS Upton, NY

Current Version | Previous Version | Text Only | Print | Product List | Glossary On
Versions: 1 2 3 4 5 6 7 8 9 10 11 12 13 14 15 16 17 18 19 20 21 22 23 24 25 26 27
000 ASUS41 KOKX 241505 RWROKX Regional Weather Roundup National Weather Service New York NY 1000 AM EST SAT FEB 24 2018 Note: "FAIR" indicates few or no clouds below 12,000 feet with no significant weather and/or obstructions to visibility. NYZ071-072-176-178-NJZ106-104-241600- New York City Metro Area CITY SKY/WX TMP DP RH WIND PRES REMARKS Central Park FAIR 50 42 74 NW5 30.18F Bronx Bot Gard N/A 52 39 62 SW7 30.17R Bronx Lehman C N/A 52 41 66 NW3 N/A LaGuardia Arpt PTSUNNY 50 41 71 NW6 30.15F Queens College N/A 50 41 71 NW9 N/A Kennedy Intl PTSUNNY 52 42 69 NW12 30.16F Breezy Point N/A 45 N/A N/A SW7G13 N/A Brooklyn Coll N/A 50 43 76 W5 N/A Staten Island N/A 48 43 81 W5 N/A Newark/Liberty PTSUNNY 51 43 74 NW5 30.16F Teterboro FAIR 54 40 59 N9 30.15F $$ NYZ177-179-078>081-241600- Long Island New York CITY SKY/WX TMP DP RH WIND PRES REMARKS Jones Beach N/A 46 N/A N/A W6 N/A Wantagh N/A 54 41 62 N8 N/A Hempstead N/A 52 43 71 NW5 30.18F Matinecock Pt N/A 48 N/A N/A SW3 N/A Farmingdale FAIR 53 43 68 N8 30.15F MacArthur/ISP PTSUNNY 52 43 71 N8 30.14F Stony Brook U N/A 46 41 81 NW3 N/A Shirley FAIR 53 44 71 NW8 30.15S Mt Sinai Harb N/A 48 N/A N/A NW1 N/A Westhampton FAIR 51 42 71 NW8 30.16F East Hampton FAIR 47 41 79 N6 30.14S Southold N/A 45 41 87 W6 N/A Montauk N/A 47 42 83 W7 30.15S $$ NYZ052-065-067-241600- Hudson Valley CITY SKY/WX TMP DP RH WIND PRES REMARKS White Plains FAIR 51 42 71 NW7 30.14S Larchmont Harb N/A 50 N/A N/A NW8 N/A Croton On Huds N/A 50 N/A N/A NW8 N/A Somers N/A 50 41 71 N5 N/A Brewster N/A 46 41 81 NW7 N/A Newburgh MOSUNNY 48 45 87 W12 30.17R Montgomery FAIR 51 40 65 NW10 30.14R Otisville N/A 46 39 76 NW5 N/A Warwick N/A 48 41 76 NW7 N/A Suffern N/A 50 37 62 N10 N/A Poughkeepsie FAIR 47 41 80 CALM 30.16S Albany PTSUNNY 46 35 65 NW16G24 30.18F $$ NJZ001-105-106-008-010-013-015-019>022-104-241600- New Jersey CITY SKY/WX TMP DP RH WIND PRES REMARKS Newark/Liberty PTSUNNY 51 43 74 NW5 30.16F Teterboro FAIR 54 40 59 N9 30.15F Caldwell PTSUNNY 52 41 66 N12 30.16F Somerville CLOUDY 49 44 83 CALM 30.16S Linden CLOUDY 49 45 84 CALM 30.17S Perth Amboy N/A 46 N/A N/A W6 N/A Sussex PTSUNNY 50 41 71 VRB6 30.16S Andover N/A 47 41 80 VRB5 30.17S Trenton PTSUNNY 50 44 80 N3 30.17F Millville CLOUDY 50 48 93 CALM 30.18F Atlantic City CLOUDY 50 48 93 CALM 30.19S Wrightstown PTSUNNY 48 45 87 CALM 30.15F Toms River CLOUDY 47 46 97 CALM 30.19F FOG Belmar FAIR 51 44 77 W5 30.18F $$ PAZ047>061-062-071-241600- Eastern Pennsylvania CITY SKY/WX TMP DP RH WIND PRES REMARKS Philadelphia CLOUDY 46 44 93 S3 30.19F FOG Allentown CLOUDY 48 42 80 NW5 30.18R Scranton LGT RAIN 42 42 100 CALM 30.18F FOG $$ CTZ002-004>006-009-010-012-RIZ004-006-007-MAZ004-011-015-241600- Southern New England In CT CITY SKY/WX TMP DP RH WIND PRES REMARKS Bradley Intl FAIR 50 37 61 NW15G22 30.13F Hartford FAIR 52 39 61 NW10 30.14F Danbury FAIR 48 41 76 N8 30.16S Wtrbury/Oxford FAIR 47 42 83 NW8 30.14F Norwalk Harbor N/A 43 N/A N/A S5 N/A Bridgeport FAIR 47 43 86 SW6 30.15S Meriden FAIR 51 38 60 NW13 30.14F New Haven FAIR 48 42 80 W9 30.14F Chester FAIR 52 39 62 N9 30.13S Groton FOG 42 40 92 SW12 30.12F VSB 1/4 Willimantic FAIR 51 38 60 N14G20 30.14S In RI CITY SKY/WX TMP DP RH WIND PRES REMARKS Providence FAIR 53 40 61 NW10 30.11F Block Island FAIR 45 41 86 W10 30.13F Westerly CLOUDY 44 44 100 SW5 30.13F FOG In MA CITY SKY/WX TMP DP RH WIND PRES REMARKS Boston FAIR 49 39 68 NW14G21 30.09S Worcester FAIR 45 35 68 W17 30.08S Westfield FAIR 50 36 58 NW16 30.12F Provincetown FAIR 48 42 80 W10 30.11R Nantucket CLOUDY 42 42 100 W12 30.12F FOG $$ ANZ330-335-338-340-345-350-353-355-241600- Coastal Marine Observations STATION/POSITION TIME SKY/WX TEMP WIND PRES VSBY WAVE AIR SEA DIR/SP/G HT/PER (UTC) (F) (DEG/KT/KT) (MB) (MI) (FT/S) NY Harb Entrance 1450 42 39 250/ 6/ 8 1021.9 2/ 9 20 S Fire Island 1450 44 43 250/ 10/ 12 1021.7 3/ 9 23 SSW Montauk P 1450 42 43 250/ 6/ 6 1021.3 3/ 5 15 E Barnegat Li 1430 42 N/A 3/ 9 Hudson Canyon 1450 45 46 270/ 8/ 12 1021.8 3/ 9 Kings Point 1424 46 38 CALM / 1 1022.0 Execution Rocks NOT AVBL Western LI Sound NOT AVBL Central LI Sound 1415 39 240/ 8/ 8 N/A 1 Robbins Reef 1424 47 250/ 8/ 10 1022.1 $$ >>>>>>>>>>>>>>>>>>>>>>>>>>>> KEY <<<<<<<<<<<<<<<<<<<<<<<<<<< > < > SKY/WX - Sky Condition/Present Weather < > TMP - Temperature in Fahrenheit < > DP - Dew Point in Fahrenheit < > RH - Relative Humidity in Percent < > WIND - Direction (from) and Speed in MPH < > PRES - Mean Sea Level Pressure (inches of Hg) < > WCI - Wind Chill Index < > VSB - Visibility in Miles < > HX - Heat Index < > TC - Temperature in Celsius < > VRB - Varibale Wind Direction < > < >>>>>>>>>>>>>>>>>>>>>>>>>>>> KEY <<<<<<<<<<<<<<<<<<<<<<<<<<<

USA.gov is the U.S. government's official web portal to all federal, state and local government web resources and services.